Location: Waco, TX
(31.5480°N, 97.1670°W)
Time: 23:11:52
(UTC-06:00)

ISS - Pass Details

Date: 16 February 2019
Orbit: 403 x 411 km, 51.6° (Epoch: 22 February)

Event Time Altitude Azimuth Distance (km) Brightness Sun altitude
Rises 08:23:28 0° 216° (SW) 2,301 -0.1 14.1°
Reaches altitude 10° 08:25:33 10° 213° (SSW) 1,445 -1.1 14.5°
Maximum altitude 08:28:44 59° 133° (SE) 468 -2.7 15.1°
Drops below altitude 10° 08:31:57 10° 53° (NE) 1,454 -0.6 15.7°
Sets 08:34:03 0° 49° (NE) 2,316 0.3 16.1°
